Time,TemperatureF,DewpointF,PressureIn,WindDirection,WindDirectionDegrees,WindSpeedMPH,WindSpeedGustMPH,Humidity,HourlyPrecipIn,Conditions,Clouds,dailyrainin,SolarRadiationWatts/m^2,SoftwareType,DateUTC
2013-03-11 00:00:00,47.2,23.0,30.14,SE,136,0.0,0.0,38,0.00,,,0.00,0,weatherlink.com 1.10,2013-03-11 06:00:00,
2013-03-11 00:15:00,46.0,21.0,30.14,SE,136,0.0,0.0,38,0.00,,,0.00,0,weatherlink.com 1.10,2013-03-11 06:15:00,
2013-03-11 00:30:00,44.7,21.0,30.14,SE,136,0.0,0.0,39,0.00,,,0.00,0,weatherlink.com 1.10,2013-03-11 06:30:00,
2013-03-11 00:45:00,44.0,20.0,30.14,SE,136,0.0,0.0,39,0.00,,,0.00,0,weatherlink.com 1.10,2013-03-11 06:45:00,
2013-03-11 01:00:00,43.7,21.0,30.14,SE,136,0.0,0.0,40,0.00,,,0.00,0,weatherlink.com 1.10,2013-03-11 07:00:00,
2013-03-11 01:15:00,43.1,20.0,30.15,SE,136,0.0,0.0,40,0.00,,,0.00,0,weatherlink.com 1.10,2013-03-11 07:15:00,
2013-03-11 01:30:00,42.8,20.0,30.15,SE,136,0.0,0.0,41,0.00,,,0.00,0,weatherlink.com 1.10,2013-03-11 07:30:00,
2013-03-11 01:45:00,42.7,20.0,30.15,SE,136,0.0,0.0,41,0.00,,,0.00,0,weatherlink.com 1.10,2013-03-11 07:45:00,
2013-03-11 02:00:00,42.5,20.0,30.15,SE,136,0.0,0.0,41,0.00,,,0.00,0,weatherlink.com 1.10,2013-03-11 08:00:00,
2013-03-11 02:15:00,42.1,20.0,30.14,SE,136,0.0,0.0,41,0.00,,,0.00,0,weatherlink.com 1.10,2013-03-11 08:15:00,
2013-03-11 02:30:00,41.7,19.0,30.14,SE,136,0.0,0.0,41,0.00,,,0.00,0,weatherlink.com 1.10,2013-03-11 08:30:00,
2013-03-11 02:45:00,41.3,18.0,30.14,SE,136,0.0,0.0,40,0.00,,,0.00,0,weatherlink.com 1.10,2013-03-11 08:45:00,
2013-03-11 03:00:00,41.0,18.0,30.14,SE,136,0.0,1.0,40,0.00,,,0.00,0,weatherlink.com 1.10,2013-03-11 09:00:00,
2013-03-11 03:15:00,40.7,18.0,30.13,SE,136,0.0,1.0,40,0.00,,,0.00,0,weatherlink.com 1.10,2013-03-11 09:15:00,
2013-03-11 03:30:00,40.5,17.0,30.13,SE,136,0.0,2.0,39,0.00,,,0.00,0,weatherlink.com 1.10,2013-03-11 09:30:00,
2013-03-11 03:45:00,40.8,17.0,30.13,SE,136,0.0,1.0,39,0.00,,,0.00,0,weatherlink.com 1.10,2013-03-11 09:45:00,
2013-03-11 04:00:00,40.8,17.0,30.13,SE,136,0.0,1.0,38,0.00,,,0.00,0,weatherlink.com 1.10,2013-03-11 10:00:00,
2013-03-11 04:15:00,40.5,17.0,30.13,SE,136,1.0,1.0,39,0.00,,,0.00,0,weatherlink.com 1.10,2013-03-11 10:15:00,
2013-03-11 04:30:00,40.0,17.0,30.14,SE,136,0.0,0.0,39,0.00,,,0.00,0,weatherlink.com 1.10,2013-03-11 10:30:00,
2013-03-11 04:45:00,40.0,17.0,30.14,SE,136,0.0,0.0,39,0.00,,,0.00,0,weatherlink.com 1.10,2013-03-11 10:45:00,
2013-03-11 05:00:00,39.6,16.0,30.14,SE,136,0.0,0.0,39,0.00,,,0.00,0,weatherlink.com 1.10,2013-03-11 11:00:00,
2013-03-11 05:15:00,39.3,17.0,30.14,SE,136,0.0,0.0,40,0.00,,,0.00,0,weatherlink.com 1.10,2013-03-11 11:15:00,
2013-03-11 05:30:00,39.1,17.0,30.14,SE,136,0.0,0.0,40,0.00,,,0.00,0,weatherlink.com 1.10,2013-03-11 11:30:00,
2013-03-11 05:46:00,38.8,16.0,30.14,SE,136,0.0,0.0,40,0.00,,,0.00,0,weatherlink.com 1.10,2013-03-11 11:46:00,
2013-03-11 06:01:00,38.7,16.0,30.14,SE,136,0.0,0.0,40,0.00,,,0.00,0,weatherlink.com 1.10,2013-03-11 12:01:00,
2013-03-11 06:16:00,38.4,16.0,30.15,SE,136,0.0,0.0,41,0.00,,,0.00,0,weatherlink.com 1.10,2013-03-11 12:16:00,
2013-03-11 06:31:00,38.1,17.0,30.15,SE,136,0.0,0.0,42,0.00,,,0.00,0,weatherlink.com 1.10,2013-03-11 12:31:00,
2013-03-11 06:46:00,38.1,17.0,30.15,SE,136,0.0,0.0,42,0.00,,,0.00,0,weatherlink.com 1.10,2013-03-11 12:46:00,
2013-03-11 07:01:00,38.2,17.0,30.16,SE,136,0.0,0.0,42,0.00,,,0.00,0,weatherlink.com 1.10,2013-03-11 13:01:00,
2013-03-11 08:16:00,42.7,19.0,30.17,SE,137,0.0,0.0,39,0.00,,,0.00,121,weatherlink.com 1.10,2013-03-11 14:16:00,
2013-03-11 08:31:00,43.6,20.0,30.17,SE,137,1.0,3.0,39,0.00,,,0.00,185,weatherlink.com 1.10,2013-03-11 14:31:00,
2013-03-11 08:46:00,44.5,20.0,30.17,SE,136,1.0,5.0,38,0.00,,,0.00,244,weatherlink.com 1.10,2013-03-11 14:46:00,
2013-03-11 09:01:00,45.1,21.0,30.17,SE,137,4.0,4.0,39,0.00,,,0.00,299,weatherlink.com 1.10,2013-03-11 15:01:00,
2013-03-11 09:16:00,46.3,22.0,30.17,SE,140,4.0,7.0,38,0.00,,,0.00,352,weatherlink.com 1.10,2013-03-11 15:16:00,
2013-03-11 09:31:00,47.0,22.0,30.17,SSE,147,3.0,7.0,37,0.00,,,0.00,399,weatherlink.com 1.10,2013-03-11 15:31:00,
2013-03-11 09:46:00,48.1,22.0,30.18,SSE,151,3.0,8.0,36,0.00,,,0.00,450,weatherlink.com 1.10,2013-03-11 15:46:00,
2013-03-11 10:02:00,49.2,22.0,30.18,SSE,155,2.0,6.0,35,0.00,,,0.00,496,weatherlink.com 1.10,2013-03-11 16:02:00,
2013-03-11 10:16:00,50.5,23.0,30.18,SSE,155,1.0,7.0,34,0.00,,,0.00,541,weatherlink.com 1.10,2013-03-11 16:16:00,
2013-03-11 10:32:00,51.4,23.0,30.18,SSE,157,3.0,8.0,33,0.00,,,0.00,582,weatherlink.com 1.10,2013-03-11 16:32:00,
2013-03-11 10:47:00,53.2,24.0,30.18,SSE,163,4.0,8.0,32,0.00,,,0.00,624,weatherlink.com 1.10,2013-03-11 16:47:00,
2013-03-11 11:02:00,54.4,24.0,30.18,SSE,168,4.0,8.0,31,0.00,,,0.00,659,weatherlink.com 1.10,2013-03-11 17:02:00,
2013-03-11 11:17:00,55.5,24.0,30.17,South,181,1.0,10.0,30,0.00,,,0.00,691,weatherlink.com 1.10,2013-03-11 17:17:00,
2013-03-11 11:32:00,55.7,25.0,30.17,South,180,3.0,9.0,30,0.00,,,0.00,717,weatherlink.com 1.10,2013-03-11 17:32:00,
2013-03-11 11:47:00,56.1,24.0,30.16,South,190,7.0,11.0,29,0.00,,,0.00,747,weatherlink.com 1.10,2013-03-11 17:47:00,
2013-03-11 12:02:00,57.5,25.0,30.15,SSW,205,1.0,8.0,29,0.00,,,0.00,772,weatherlink.com 1.10,2013-03-11 18:02:00,
2013-03-11 12:47:00,60.3,26.0,30.13,WSW,238,2.0,9.0,27,0.00,,,0.00,814,weatherlink.com 1.10,2013-03-11 18:47:00,
2013-03-11 13:02:00,61.1,26.0,30.12,WSW,237,2.0,9.0,26,0.00,,,0.00,824,weatherlink.com 1.10,2013-03-11 19:02:00,
2013-03-11 13:17:00,61.3,26.0,30.11,SW,236,2.0,8.0,26,0.00,,,0.00,824,weatherlink.com 1.10,2013-03-11 19:17:00,
2013-03-11 13:32:00,62.6,26.0,30.10,WSW,242,1.0,9.0,25,0.00,,,0.00,826,weatherlink.com 1.10,2013-03-11 19:32:00,
2013-03-11 13:47:00,63.1,26.0,30.09,West,277,2.0,10.0,24,0.00,,,0.00,823,weatherlink.com 1.10,2013-03-11 19:47:00,
2013-03-11 14:02:00,62.4,26.0,30.08,WSW,240,5.0,9.0,25,0.00,,,0.00,810,weatherlink.com 1.10,2013-03-11 20:02:00,
2013-03-11 14:19:00,64.2,24.0,30.07,WSW,252,3.0,11.0,22,0.00,,,0.00,798,weatherlink.com 1.10,2013-03-11 20:19:00,
2013-03-11 14:32:00,63.7,25.0,30.06,WSW,239,2.0,13.0,23,0.00,,,0.00,777,weatherlink.com 1.10,2013-03-11 20:32:00,
2013-03-11 14:47:00,63.5,25.0,30.05,SW,235,5.0,14.0,23,0.00,,,0.00,754,weatherlink.com 1.10,2013-03-11 20:47:00,
2013-03-11 15:03:00,64.0,25.0,30.05,SW,229,10.0,15.0,23,0.00,,,0.00,728,weatherlink.com 1.10,2013-03-11 21:03:00,
2013-03-11 15:18:00,65.1,25.0,30.04,WSW,256,2.0,11.0,22,0.00,,,0.00,701,weatherlink.com 1.10,2013-03-11 21:18:00,
2013-03-11 15:33:00,65.7,25.0,30.03,West,266,5.0,10.0,21,0.00,,,0.00,664,weatherlink.com 1.10,2013-03-11 21:33:00,
2013-03-11 15:48:00,65.8,25.0,30.03,WSW,248,0.0,12.0,21,0.00,,,0.00,628,weatherlink.com 1.10,2013-03-11 21:48:00,
2013-03-11 16:03:00,66.3,24.0,30.02,WSW,254,3.0,9.0,20,0.00,,,0.00,585,weatherlink.com 1.10,2013-03-11 22:03:00,
2013-03-11 16:18:00,66.6,24.0,30.02,SW,233,8.0,13.0,20,0.00,,,0.00,547,weatherlink.com 1.10,2013-03-11 22:18:00,
2013-03-11 16:33:00,65.3,24.0,30.01,SW,227,2.0,10.0,21,0.00,,,0.00,497,weatherlink.com 1.10,2013-03-11 22:33:00,
2013-03-11 16:48:00,66.1,24.0,30.00,SW,233,7.0,12.0,20,0.00,,,0.00,448,weatherlink.com 1.10,2013-03-11 22:48:00,
2013-03-11 17:03:00,66.5,23.0,29.99,SW,230,4.0,9.0,19,0.00,,,0.00,401,weatherlink.com 1.10,2013-03-11 23:03:00,
2013-03-11 17:18:00,66.1,23.0,29.98,SW,236,1.0,10.0,19,0.00,,,0.00,348,weatherlink.com 1.10,2013-03-11 23:18:00,
2013-03-11 17:33:00,65.9,22.0,29.98,WSW,237,2.0,11.0,19,0.00,,,0.00,301,weatherlink.com 1.10,2013-03-11 23:33:00,
2013-03-11 17:48:00,65.4,22.0,29.98,SW,232,2.0,9.0,19,0.00,,,0.00,244,weatherlink.com 1.10,2013-03-11 23:48:00,
2013-03-11 18:03:00,65.7,22.0,29.98,SW,232,0.0,8.0,19,0.00,,,0.00,183,weatherlink.com 1.10,2013-03-12 00:03:00,
2013-03-11 18:18:00,64.7,21.0,29.98,SW,229,2.0,9.0,19,0.00,,,0.00,28,weatherlink.com 1.10,2013-03-12 00:18:00,
2013-03-11 18:33:00,64.4,20.0,29.97,SW,230,1.0,7.0,18,0.00,,,0.00,28,weatherlink.com 1.10,2013-03-12 00:33:00,
2013-03-11 18:48:00,64.0,21.0,29.98,SW,230,4.0,7.0,19,0.00,,,0.00,16,weatherlink.com 1.10,2013-03-12 00:48:00,
2013-03-11 19:03:00,63.5,20.0,29.98,SW,230,0.0,10.0,19,0.00,,,0.00,9,weatherlink.com 1.10,2013-03-12 01:03:00,
2013-03-11 19:18:00,62.9,20.0,29.97,SW,230,1.0,2.0,19,0.00,,,0.00,0,weatherlink.com 1.10,2013-03-12 01:18:00,
2013-03-11 19:33:00,62.4,21.0,29.98,SW,230,1.0,3.0,20,0.00,,,0.00,0,weatherlink.com 1.10,2013-03-12 01:33:00,
2013-03-11 19:48:00,61.9,20.0,29.98,SW,230,0.0,2.0,20,0.00,,,0.00,0,weatherlink.com 1.10,2013-03-12 01:48:00,
2013-03-11 20:03:00,61.1,21.0,29.98,SW,230,0.0,0.0,21,0.00,,,0.00,0,weatherlink.com 1.10,2013-03-12 02:03:00,
2013-03-11 20:18:00,60.3,20.0,29.98,SW,230,0.0,0.0,21,0.00,,,0.00,0,weatherlink.com 1.10,2013-03-12 02:18:00,
2013-03-11 20:33:00,59.6,20.0,29.98,SW,230,0.0,0.0,22,0.00,,,0.00,0,weatherlink.com 1.10,2013-03-12 02:33:00,
2013-03-11 20:48:00,59.0,20.0,29.98,SW,230,0.0,0.0,22,0.00,,,0.00,0,weatherlink.com 1.10,2013-03-12 02:48:00,
2013-03-11 21:03:00,58.5,21.0,29.99,SW,230,0.0,0.0,23,0.00,,,0.00,0,weatherlink.com 1.10,2013-03-12 03:03:00,
2013-03-11 21:18:00,57.9,20.0,29.99,SW,230,0.0,0.0,23,0.00,,,0.00,0,weatherlink.com 1.10,2013-03-12 03:18:00,
2013-03-11 21:33:00,57.6,20.0,30.00,SW,230,0.0,1.0,23,0.00,,,0.00,0,weatherlink.com 1.10,2013-03-12 03:33:00,
2013-03-11 21:48:00,57.1,20.0,30.00,SW,230,0.0,0.0,24,0.00,,,0.00,0,weatherlink.com 1.10,2013-03-12 03:48:00,
2013-03-11 22:03:00,56.7,20.0,30.00,SW,230,0.0,0.0,24,0.00,,,0.00,0,weatherlink.com 1.10,2013-03-12 04:03:00,
2013-03-11 22:18:00,56.0,20.0,30.00,SW,230,0.0,0.0,25,0.00,,,0.00,0,weatherlink.com 1.10,2013-03-12 04:18:00,
2013-03-11 22:33:00,55.3,21.0,30.00,SW,230,0.0,0.0,26,0.00,,,0.00,0,weatherlink.com 1.10,2013-03-12 04:33:00,
2013-03-11 22:48:00,54.7,20.0,30.00,SW,230,0.0,0.0,26,0.00,,,0.00,0,weatherlink.com 1.10,2013-03-12 04:48:00,
2013-03-11 23:03:00,54.2,20.0,30.01,SW,230,0.0,0.0,26,0.00,,,0.00,0,weatherlink.com 1.10,2013-03-12 05:03:00,
2013-03-11 23:18:00,53.8,20.0,30.01,SW,230,0.0,1.0,27,0.00,,,0.00,0,weatherlink.com 1.10,2013-03-12 05:18:00,
2013-03-11 23:33:00,53.4,19.0,30.00,SW,230,0.0,0.0,26,0.00,,,0.00,0,weatherlink.com 1.10,2013-03-12 05:33:00,
2013-03-11 23:48:00,52.8,19.0,30.00,SW,230,0.0,0.0,27,0.00,,,0.00,0,weatherlink.com 1.10,2013-03-12 05:48:00,